Location: Diebersbach
(48.5163°N, 8.0558°E)
Time: 08:21:40
(UTC+00:00)

CZ-2D R/B - Pass Details

Date: 20 June 2021
Orbit: 791 x 845 km, 98.7° (Epoch: 26 July)

Event Time Altitude Azimuth Distance (km) Brightness Sun altitude
Rises 01:31:40 0° 12° (NNE) 3,306 6.9 -13.0°
Reaches altitude 10° 01:34:01 10° 10° (N) 2,370 5.8 -12.8°
Maximum altitude 01:39:12 67° 289° (WNW) 861 2.2 -12.4°
Enters shadow 01:43:15 17° 210° (SSW) 1,932 3.4 -12.1°
